Weather History for Wahoo, NE

Change the Weather History Date:

Thursday, February 9, 2012

  Actual Average Record
Temperature  
Mean Temperature 28 °F -  
Max Temperature 34 °F 35 °F 62 °F (1977)
Min Temperature 22 °F 11 °F -16 °F (1975)
Degree Days  
Heating Degree Days 37    
Moisture  
Dew Point 25 °F    
Average Humidity 86    
Maximum Humidity 94    
Minimum Humidity 76    
Precipitation  
Precipitation 0.00 in - - ()
Sea Level Pressure  
Sea Level Pressure 30.16 in    
Wind  
Wind Speed 6 mph (SSW)    
Max Wind Speed 20 mph    
Max Gust Speed 25 mph    
Visibility 9 miles    
Events      
Averages and records for this station are not official NWS values.
T = Trace of Precipitation, MM = Missing Value Source: NWS Daily Summary

Daily Weather History Graph

Daily Weather History Graph

Search for Another Location

Airport:

Trip Planner

Search our weather history database for the weather conditions in past years. The results will help you decide how hot, cold, wet, or windy it might be!

Date:

Astronomy

Feb. 09, 2012 Rise Set
Actual Time 7:29 AM CST 5:52 PM CST
Civil Twilight 7:00 AM CST 6:21 PM CST
Nautical Twilight 6:28 AM CST 6:53 PM CST
Astronomical Twilight 5:55 AM CST 7:25 PM CST
Moon 8:24 PM CST (2/9) 8:04 AM CST (2/9)
Length of Visible Light 11h 20m
Length of Day
10h 23m
Waning Gibbous, 96% of the Moon is Illuminated
Feb 9
Waning Gibbous
Feb 14
Last Quarter
Feb 21
New
Feb 29
First Quarter
Mar 8
Full

Hourly Weather History & Observations

Time (CST) Temp. Windchill Dew Point Humidity Pressure Visibility Wind Dir Wind Speed Gust Speed Precip Events Conditions
12:15 AM 22.6 °F 18.0 °F 19.2 °F 87% 30.33 in 10.0 mi SSW 3.5 mph - N/A   Overcast
12:35 AM 23.5 °F 19.1 °F 19.8 °F 85% 30.32 in 10.0 mi SSW 3.5 mph - N/A   Overcast
12:55 AM 23.5 °F - 20.3 °F 87% 30.32 in 10.0 mi Calm Calm - N/A   Overcast
1:15 AM 23.4 °F - 20.3 °F 88% 30.31 in 10.0 mi Calm Calm - N/A   Overcast
1:35 AM 23.4 °F - 20.3 °F 88% 30.31 in 10.0 mi Calm Calm - N/A   Overcast
1:55 AM 23.5 °F 17.6 °F 20.8 °F 89% 30.30 in 10.0 mi South 4.6 mph - N/A   Overcast
2:15 AM 23.7 °F 17.8 °F 21.0 °F 89% 30.29 in 10.0 mi SSE 4.6 mph - N/A   Overcast
2:35 AM 23.9 °F 19.5 °F 21.2 °F 89% 30.28 in 10.0 mi SSE 3.5 mph - N/A   Overcast
2:55 AM 23.9 °F 19.5 °F 21.2 °F 89% 30.28 in 10.0 mi South 3.5 mph - N/A   Overcast
3:15 AM 23.9 °F 18.0 °F 21.7 °F 91% 30.27 in 10.0 mi South 4.6 mph - N/A   Overcast
3:35 AM 24.3 °F - 21.9 °F 91% 30.27 in 10.0 mi Calm Calm - N/A   Overcast
3:55 AM 24.6 °F - 21.9 °F 89% 30.25 in 10.0 mi Calm Calm - N/A   Overcast
4:35 AM 25.7 °F 20.1 °F 22.8 °F 89% 30.24 in 10.0 mi South 4.6 mph - N/A   Overcast
4:55 AM 25.5 °F 19.9 °F 22.8 °F 89% 30.23 in 10.0 mi SSE 4.6 mph - N/A   Overcast
5:15 AM 25.9 °F 20.3 °F 22.8 °F 88% 30.23 in 10.0 mi South 4.6 mph - N/A   Overcast
5:35 AM 26.1 °F 20.5 °F 23.0 °F 88% 30.23 in 10.0 mi South 4.6 mph - N/A   Overcast
5:55 AM 26.1 °F 20.5 °F 23.0 °F 88% 30.22 in 10.0 mi South 4.6 mph - N/A   Overcast
6:15 AM 26.6 °F 19.1 °F 23.4 °F 88% 30.22 in 10.0 mi SSW 6.9 mph - N/A   Overcast
6:35 AM 26.6 °F 20.0 °F 23.4 °F 88% 30.22 in 10.0 mi South 5.8 mph - N/A   Overcast
6:55 AM 26.6 °F 19.1 °F 23.5 °F 88% 30.22 in 7.0 mi South 6.9 mph - N/A   Overcast
7:15 AM 27.0 °F 19.5 °F 23.9 °F 88% 30.21 in 7.0 mi South 6.9 mph - N/A   Overcast
7:35 AM 27.1 °F 18.9 °F 23.9 °F 88% 30.21 in 7.0 mi SSW 8.1 mph - N/A   Overcast
7:55 AM 27.5 °F 20.2 °F 24.3 °F 88% 30.21 in 7.0 mi SSW 6.9 mph - N/A   Overcast
8:15 AM 27.5 °F 20.2 °F 24.6 °F 89% 30.21 in 7.0 mi SSW 6.9 mph - N/A   Overcast
8:35 AM 28.2 °F 21.0 °F 25.0 °F 88% 30.21 in 7.0 mi SSW 6.9 mph - N/A   Overcast
8:55 AM 28.4 °F 20.4 °F 25.3 °F 88% 30.21 in 7.0 mi South 8.1 mph - N/A   Overcast
9:15 AM 28.9 °F 20.4 °F 25.7 °F 88% 30.21 in 7.0 mi SSW 9.2 mph - N/A   Overcast
9:35 AM 29.3 °F 21.5 °F 26.2 °F 88% 30.20 in 7.0 mi SSW 8.1 mph - N/A   Overcast
9:55 AM 30.2 °F 21.3 °F 26.6 °F 86% 30.19 in 7.0 mi SSW 10.4 mph - N/A   Overcast
10:35 AM 31.8 °F 22.3 °F 27.3 °F 83% 30.18 in 7.0 mi SSW 12.7 mph 16.1 mph N/A   Overcast
10:55 AM 32.0 °F 23.6 °F 27.5 °F 83% 30.17 in 7.0 mi SSW 10.4 mph - N/A   Overcast
11:15 AM 32.9 °F 24.1 °F 28.0 °F 82% 30.16 in 7.0 mi SSW 11.5 mph - N/A   Overcast
11:35 AM 33.3 °F 24.6 °F 28.0 °F 81% 30.15 in 7.0 mi SSW 11.5 mph - N/A   Overcast
11:55 AM 33.8 °F 24.3 °F 27.7 °F 78% 30.14 in 10.0 mi SW 13.8 mph 21.9 mph N/A   Overcast
12:15 PM 34.3 °F 24.2 °F 28.0 °F 78% 30.12 in 10.0 mi SSW 16.1 mph 19.6 mph N/A   Overcast
12:35 PM 34.7 °F 24.7 °F 27.9 °F 76% 30.11 in 10.0 mi SW 16.1 mph - N/A   Overcast
12:55 PM 34.3 °F 24.2 °F 27.5 °F 76% 30.10 in 10.0 mi SSW 16.1 mph 25.3 mph N/A   Scattered Clouds
1:15 PM 34.7 °F 24.0 °F 27.9 °F 76% 30.09 in 10.0 mi SSW 18.4 mph 23.0 mph N/A   Mostly Cloudy
1:35 PM 34.5 °F 24.1 °F 27.9 °F 77% 30.08 in 10.0 mi SSW 17.3 mph 20.7 mph N/A   Overcast
1:55 PM 34.3 °F 25.0 °F 27.9 °F 77% 30.08 in 10.0 mi SW 13.8 mph 18.4 mph N/A   Mostly Cloudy
2:15 PM 33.8 °F 23.2 °F 27.5 °F 78% 30.07 in 10.0 mi SW 17.3 mph 24.2 mph N/A   Overcast
2:35 PM 33.1 °F 21.5 °F 27.7 °F 81% 30.07 in 10.0 mi SW 19.6 mph - N/A   Overcast
2:55 PM 32.9 °F 22.8 °F 28.2 °F 83% 30.07 in 10.0 mi SSW 15.0 mph - N/A   Overcast
3:15 PM 32.5 °F 22.7 °F 28.4 °F 85% 30.07 in 10.0 mi SSW 13.8 mph - N/A   Overcast
3:35 PM 32.2 °F 21.1 °F 28.0 °F 85% 30.06 in 10.0 mi SW 17.3 mph - N/A   Overcast
3:55 PM 32.2 °F 21.4 °F 28.2 °F 85% 30.05 in 7.0 mi SW 16.1 mph 21.9 mph N/A   Overcast
4:15 PM 32.5 °F 23.2 °F 28.4 °F 85% 30.05 in 10.0 mi SSW 12.7 mph - N/A   Overcast
4:35 PM 32.5 °F 24.8 °F 28.4 °F 85% 30.04 in 7.0 mi SW 9.2 mph - N/A   Mostly Cloudy
4:55 PM 32.7 °F 25.7 °F 28.4 °F 84% 30.04 in 7.0 mi SW 8.1 mph - N/A   Scattered Clouds
5:15 PM 33.3 °F 25.7 °F 28.8 °F 84% 30.04 in 10.0 mi SSW 9.2 mph - N/A   Clear
5:35 PM 32.9 °F 24.1 °F 28.9 °F 85% 30.04 in 7.0 mi SSW 11.5 mph - N/A   Scattered Clouds
5:55 PM 32.4 °F 24.6 °F 28.4 °F 85% 30.03 in 10.0 mi SW 9.2 mph - N/A   Scattered Clouds
6:15 PM 32.0 °F 27.5 °F 28.4 °F 87% 30.03 in 10.0 mi South 4.6 mph - N/A   Clear
6:35 PM 30.6 °F 27.1 °F 27.1 °F 87% 30.04 in 10.0 mi SSE 3.5 mph - N/A   Clear
6:55 PM 29.8 °F 23.9 °F 27.3 °F 90% 30.04 in 7.0 mi South 5.8 mph - N/A   Clear
7:15 PM 28.8 °F 22.6 °F 26.2 °F 90% 30.04 in 7.0 mi SSW 5.8 mph - N/A   Clear
7:35 PM 29.3 °F 24.3 °F 26.4 °F 89% 30.04 in 7.0 mi South 4.6 mph - N/A   Clear
7:55 PM 26.1 °F 19.4 °F 24.3 °F 93% 30.03 in 7.0 mi South 5.8 mph - N/A   Clear
8:15 PM 26.1 °F 19.4 °F 24.3 °F 93% 30.03 in 7.0 mi South 5.8 mph - N/A   Clear
8:35 PM 27.3 °F 23.4 °F 25.9 °F 94% 30.03 in 7.0 mi SSW 3.5 mph - N/A   Clear
8:55 PM 28.0 °F 22.8 °F 26.6 °F 94% 30.04 in 7.0 mi SW 4.6 mph - N/A   Clear
9:15 PM 28.2 °F 22.0 °F 25.7 °F 90% 30.04 in 7.0 mi West 5.8 mph - N/A   Clear
9:35 PM 28.6 °F 22.4 °F 25.9 °F 90% 30.04 in 7.0 mi WSW 5.8 mph - N/A   Clear
9:55 PM 28.8 °F 23.7 °F 25.5 °F 88% 30.05 in 7.0 mi WSW 4.6 mph - N/A   Clear
10:15 PM 27.5 °F 21.1 °F 24.6 °F 89% 30.05 in 7.0 mi West 5.8 mph - N/A   Clear
10:35 PM 27.5 °F 21.1 °F 23.9 °F 86% 30.06 in 7.0 mi West 5.8 mph - N/A   Clear
10:55 PM 28.4 °F 19.7 °F 23.9 °F 83% 30.06 in 10.0 mi WNW 9.2 mph - N/A   Clear
11:15 PM 29.3 °F 19.1 °F 23.7 °F 80% 30.06 in 10.0 mi NW 12.7 mph - N/A   Mostly Cloudy
11:35 PM 29.3 °F 17.7 °F 22.8 °F 77% 30.07 in 10.0 mi NNW 16.1 mph 21.9 mph N/A   Scattered Clouds
11:55 PM 29.3 °F 17.0 °F 22.6 °F 76% 30.07 in 10.0 mi NNW 18.4 mph 23.0 mph N/A   Clear